GW0064 Weather Reports


Display with metric or nautical units.
time (UTC)temp
F
wind
direction
speed
MPH
gust
MPH
rain 1hr
in
rain 24hr
in
rain mn
in
humidity
%
barometer
mb
20260503012001 45 288 0.0 0.0 0.00 0.00 0.00 53 1018.0
20260503011503 45 288 0.0 0.0 0.00 0.00 0.00 56 1018.1
20260503011002 45 288 0.0 0.0 0.00 0.00 0.00 59 1018.1
20260503010503 46 288 0.0 1.0 0.00 0.00 0.00 56 1018.0
20260503010004 46 288 0.0 1.0 0.00 0.00 0.00 52 1018.0
20260503005503 47 288 0.0 2.0 0.00 0.00 0.00 51 1018.0
20260503005001 47 288 1.0 2.0 0.00 0.00 0.00 50 1017.9
20260503004501 48 292 1.0 2.0 0.00 0.00 0.00 47 1017.9
20260503003501 49 317 1.0 3.0 0.00 0.00 0.00 44 1018.0
20260503003002 49 316 2.0 4.0 0.00 0.00 0.00 42 1017.9
20260503002504 50 299 2.0 6.0 0.00 0.00 0.00 41 1017.9
20260503002001 50 298 4.0 6.0 0.00 0.00 0.00 38 1017.8
20260503001501 50 293 4.0 6.0 0.00 0.00 0.00 39 1017.8
20260503000502 51 302 4.0 7.0 0.00 0.00 0.00 37 1017.7
20260503000004 51 307 5.0 8.0 0.00 0.00 0.00 36 1017.7
20260502235502 51 347 5.0 9.0 0.00 0.00 0.00 37 1017.7
20260502235001 51 33 3.0 9.0 0.00 0.00 0.00 38 1017.6
20260502234501 51 343 4.0 10.0 0.00 0.00 0.00 37 1017.6
20260502234001 51 318 6.0 10.0 0.00 0.00 0.00 36 1017.7
20260502233503 51 323 5.0 9.0 0.00 0.00 0.00 36 1017.6
20260502233003 52 327 4.0 9.0 0.00 0.00 0.00 38 1017.7
20260502232501 52 330 3.0 8.0 0.00 0.00 0.00 38 1017.6
20260502232002 52 343 4.0 9.0 0.00 0.00 0.00 36 1017.7
20260502231502 52 316 5.0 11.0 0.00 0.00 0.00 36 1017.7
20260502230503 52 306 5.0 9.0 0.00 0.00 0.00 37 1017.7
20260502230004 0 298 5.0 14.0 0.00 0.00 0.00 1017.7
20260502225502 52 325 6.0 14.0 0.00 0.00 0.00 37 1017.7
20260502225001 52 278 3.0 8.0 0.00 0.00 0.00 37 1017.6
20260502224501 52 333 4.0 9.0 0.00 0.00 0.00 1017.7
20260502224001 51 36 4.0 9.0 0.00 0.00 0.00 39 1017.7
20260502223502 0 295 5.0 10.0 0.00 0.00 0.00 1017.8
20260502223002 0 295 6.0 10.0 0.00 0.00 0.00 100 1017.8
20260502222501 0 333 6.0 10.0 0.00 0.00 0.00 99 1017.8
20260502222001 0 3 6.0 14.0 0.00 0.00 0.00 1017.8
20260502221503 0 38 7.0 16.0 0.00 0.00 0.00 1017.7
20260502221002 0 310 8.0 16.0 0.00 0.00 0.00 1017.7
20260502220501 0 304 5.0 11.0 0.00 0.00 0.00 1017.6
20260502220004 0 323 5.0 9.0 0.00 0.00 0.00 1017.6
20260502215501 0 298 5.0 13.0 0.00 0.00 0.00 1017.7
20260502214501 0 310 6.0 13.0 0.00 0.00 0.00 100 1017.7
20260502214001 53 12 9.0 13.0 0.00 0.00 0.00 38 1017.6
20260502213502 53 48 3.0 13.0 0.00 0.00 0.00 97 1017.6
20260502212501 52 283 7.0 13.0 0.00 0.00 0.00 39 1017.6
20260502212001 52 302 7.0 13.0 0.00 0.00 0.00 41 1017.6
20260502211501 0 339 5.0 11.0 0.00 0.00 0.00 100 1017.7
20260502211001 52 329 6.0 11.0 0.00 0.00 0.00 100 1017.7
20260502205501 0 39 7.0 12.0 0.00 0.00 0.00 1017.7
20260502205003 0 39 6.0 11.0 0.00 0.00 0.00 1017.7
20260502204502 52 27 7.0 13.0 0.00 0.00 0.00 1017.8
20260502204003 0 340 6.0 13.0 0.00 0.00 0.00 42 1017.9
20260502203501 0 25 5.0 10.0 0.00 0.00 0.00 100 1017.8
20260502203001 0 47 6.0 11.0 0.00 0.00 0.00 1017.9
20260502202502 0 314 7.0 11.0 0.00 0.00 0.00 1018.0
20260502202001 0 303 5.0 10.0 0.00 0.00 0.00 43 1018.0
20260502201503 52 31 4.0 10.0 0.00 0.00 0.00 41 1018.0
20260502201002 51 13 5.0 10.0 0.00 0.00 0.00 43 1018.1
20260502200004 50 23 4.0 12.0 0.00 0.00 0.00 41 1018.3
20260502195501 51 26 5.0 14.0 0.00 0.00 0.00 43 1018.2
20260502195003 52 349 5.0 14.0 0.00 0.00 0.00 41 1018.3
20260502194502 51 331 9.0 13.0 0.00 0.00 0.00 43 1018.3
20260502194001 51 299 6.0 13.0 0.00 0.00 0.00 41 1018.3
20260502193503 0 294 7.0 12.0 0.00 0.00 0.00 1018.4
20260502193001 0 329 5.0 12.0 0.00 0.00 0.00 1018.5
20260502192502 0 323 2.0 10.0 0.00 0.00 0.00 1018.5
20260502192001 0 333 6.0 13.0 0.00 0.00 0.00 1018.6
20260502191501 0 27 8.0 13.0 0.00 0.00 0.00 100 1018.6
20260502191002 0 308 6.0 11.0 0.00 0.00 0.00 1018.6
20260502190501 0 345 6.0 12.0 0.00 0.00 0.00 1018.7
20260502190005 0 11 6.0 12.0 0.00 0.00 0.00 1018.7
20260502185501 0 8 7.0 14.0 0.00 0.00 0.00 100 1018.7
20260502185001 49 360 9.0 12.0 0.00 0.00 0.00 49 1018.7
20260502184001 49 325 5.0 12.0 0.00 0.00 0.00 47 1018.8
20260502183501 50 352 6.0 13.0 0.00 0.00 0.00 47 1018.8
20260502182501 0 20 4.0 11.0 0.00 0.00 0.00 100 1018.8
20260502182004 0 349 6.0 11.0 0.00 0.00 0.00 1018.9
20260502181501 0 300 4.0 11.0 0.00 0.00 0.00 1018.9
20260502181002 0 332 6.0 11.0 0.00 0.00 0.00 50 1019.0
20260502180502 0 302 7.0 11.0 0.00 0.00 0.00 1019.0
20260502170500 48 305 7.0 13.0 0.00 0.00 0.00 51 1019.4
20260502164002 0 324 5.0 12.0 0.00 0.00 0.00 1019.5
20260502163501 0 340 6.0 12.0 0.00 0.00 0.00 1019.5
20260502163002 0 337 4.0 8.0 0.00 0.00 0.00 1019.6
20260502162501 0 339 4.0 8.0 0.00 0.00 0.00 1019.6
20260502162001 45 328 3.0 9.0 0.00 0.00 0.00 54 1019.7
20260502161501 0 41 5.0 9.0 0.00 0.00 0.00 1019.7
20260502161002 0 297 4.0 9.0 0.00 0.00 0.00 1019.7
20260502160501 0 280 3.0 9.0 0.00 0.00 0.00 1019.8
20260502152002 46 29 5.0 10.0 0.00 0.00 0.00 58 1019.7
20260502151501 45 30 4.0 13.0 0.00 0.00 0.00 1019.7
20260502151001 45 342 3.0 11.0 0.00 0.00 0.00 58 1019.7
20260502150502 45 345 6.0 11.0 0.00 0.00 0.00 57 1019.7
20260502130500 40 30 5.0 9.0 0.00 0.00 0.00 65 1019.2
20260502123500 39 70 4.0 7.0 0.00 0.00 0.00 68 1019.1
20260502123001 39 19 4.0 7.0 0.00 0.00 0.00 68 1019.2
20260502122459 39 23 3.0 6.0 0.00 0.00 0.00 67 1019.1
20260502122000 38 8 2.0 4.0 0.00 0.00 0.00 71 1019.1
20260502121500 38 4 2.0 4.0 0.00 0.00 0.00 70 1019.1
20260502120500 37 25 1.0 4.0 0.00 0.00 0.00 74 1019.0
20260502115501 0 351 1.0 4.0 0.00 0.01 0.00 75 1018.9
20260502115002 36 30 0.0 2.0 0.00 0.01 0.00 78 1018.8
20260502114500 35 349 0.0 1.0 0.00 0.01 0.00 80 1018.7
20260502113500 33 4 0.0 0.0 0.00 0.01 0.00 85 1018.8
20260502113000 32 4 0.0 0.0 0.00 0.01 0.00 87 1018.7
20260502112500 32 4 0.0 0.0 0.00 0.01 0.00 87 1018.7
20260502112003 32 4 0.0 0.0 0.00 0.01 0.00 88 1018.8
20260502111000 32 4 0.0 0.0 0.00 0.01 0.00 87 1018.8
20260502110501 32 4 0.0 0.0 0.00 0.01 0.00 86 1018.8
20260502110005 32 4 0.0 0.0 0.00 0.01 0.00 85 1018.8
20260502105000 32 4 0.0 0.0 0.00 0.02 0.00 81 1018.8
20260502104500 33 4 0.0 0.0 0.00 0.02 0.00 81 1018.7
20260502104002 33 4 0.0 0.0 0.00 0.02 0.00 1018.7
20260502103459 33 4 0.0 0.0 0.00 0.02 0.00 82 1018.6
20260502102959 34 4 0.0 0.0 0.00 0.02 0.00 81 1018.6
20260502102001 34 4 0.0 0.0 0.00 0.02 0.00 80 1018.5
20260502101500 34 4 0.0 0.0 0.00 0.02 0.00 80 1018.5
20260502100959 34 4 0.0 0.0 0.00 0.02 0.00 79 1018.5
20260502100459 35 4 0.0 0.0 0.00 0.02 0.00 78 1018.5
20260502091502 37 54 1.0 3.0 0.00 0.05 0.00 71 1018.5
20260502091000 37 34 0.0 3.0 0.00 0.05 0.00 71 1018.5
20260502090501 38 30 0.0 5.0 0.00 0.05 0.00 71 1018.5
20260502071459 38 19 0.0 0.0 0.00 0.13 0.00 80 1018.3
20260502070459 38 19 0.0 0.0 0.00 0.13 0.00 80 1018.4
20260502070004 39 19 0.0 0.0 0.00 0.13 0.00 79 1018.4
20260502065501 39 19 0.0 1.0 0.00 0.14 0.00 79 1018.3
20260502064000 39 21 1.0 3.0 0.00 0.14 0.00 78 1018.5
20260502063501 40 28 2.0 3.0 0.00 0.14 0.00 78 1018.4
20260502062459 40 30 1.0 3.0 0.00 0.14 0.00 76 1018.6
20260502062001 40 45 1.0 3.0 0.00 0.14 0.00 76 1018.6
20260502061459 40 340 2.0 4.0 0.00 0.14 0.00 76 1018.6
20260502061001 40 18 2.0 4.0 0.00 0.14 0.00 76 1018.6
20260502060459 40 32 2.0 6.0 0.00 0.14 0.00 75 1018.6
20260502060002 40 346 2.0 5.0 0.00 0.14 0.00 75 1018.7
20260502055501 40 49 2.0 5.0 0.00 0.14 0.00 75 1018.7
20260502055000 41 43 3.0 6.0 0.00 0.14 0.00 74 1018.6
20260502054459 41 38 2.0 6.0 0.00 0.14 0.00 74 1018.6
20260502054002 41 37 2.0 5.0 0.00 0.14 0.00 75 1018.6
20260502053000 41 34 3.0 5.0 0.00 0.14 0.00 74 1018.6
20260502052459 41 34 2.0 5.0 0.00 0.14 0.00 74 1018.7
20260502052003 41 26 1.0 3.0 0.00 0.14 0.00 74 1018.7
20260502051459 41 43 1.0 3.0 0.00 0.14 0.00 74 1018.7
20260502050459 41 51 2.0 3.0 0.00 0.14 0.00 74 1018.5
20260502050004 41 32 1.0 7.0 0.00 0.14 0.00 72 1018.6
20260502044503 42 53 2.0 5.0 0.00 0.14 0.00 73 1018.7
20260502044002 42 38 3.0 5.0 0.00 0.14 0.00 72 1018.6
20260502043001 42 39 3.0 5.0 0.00 0.14 0.00 71 1018.5
20260502042002 42 62 2.0 4.0 0.00 0.14 0.00 74 1018.7
20260502041501 42 48 2.0 4.0 0.00 0.14 0.00 74 1018.7
20260502041001 42 39 2.0 3.0 0.00 0.14 0.00 73 1018.7
20260502040503 42 41 1.0 4.0 0.00 0.14 0.00 73 1018.7
20260502040007 43 34 2.0 4.0 0.00 0.14 0.00 74 1018.7
20260502035502 43 27 1.0 4.0 0.00 0.14 0.14 76 1018.6
20260502035003 43 26 1.0 3.0 0.00 0.14 0.14 76 1018.7
20260502034501 43 33 1.0 2.0 0.00 0.14 0.14 74 1018.8
20260502034003 43 46 0.0 3.0 0.00 0.14 0.14 73 1018.8
20260502033502 43 46 1.0 4.0 0.00 0.14 0.14 71 1018.8
20260502033003 43 41 2.0 4.0 0.00 0.14 0.14 71 1018.8
20260502032001 43 56 1.0 3.0 0.00 0.14 0.14 72 1018.7
20260502031501 43 38 0.0 2.0 0.00 0.14 0.14 73 1018.7
20260502031003 43 38 0.0 2.0 0.00 0.14 0.14 73 1018.6
20260502030502 42 38 0.0 2.0 0.00 0.14 0.14 73 1018.6
20260502030008 42 38 0.0 1.0 0.00 0.14 0.14 73 1018.5
20260502025502 42 38 0.0 2.0 0.00 0.14 0.14 73 1018.5
20260502025003 42 38 1.0 2.0 0.00 0.14 0.14 72 1018.4
20260502024002 42 38 0.0 1.0 0.00 0.14 0.14 72 1018.3
20260502023501 42 38 0.0 1.0 0.00 0.14 0.14 73 1018.2
20260502023003 42 38 0.0 1.0 0.00 0.14 0.14 73 1018.2
20260502022502 43 38 0.0 2.0 0.00 0.14 0.14 73 1018.1
20260502022003 42 38 1.0 1.0 0.00 0.14 0.14 73 1018.1
20260502021502 42 22 0.0 1.0 0.00 0.14 0.14 73 1018.0
20260502021002 43 22 0.0 1.0 0.00 0.14 0.14 72 1018.0
20260502015502 43 23 1.0 3.0 0.00 0.14 0.14 70 1017.6
20260502015001 43 29 0.0 2.0 0.00 0.14 0.14 69 1017.5
20260502014004 44 28 0.0 2.0 0.00 0.14 0.14 69 1017.4
20260502013001 44 44 1.0 3.0 0.00 0.14 0.14 69 1017.2